| time (UTC) | temp F | wind direction | speed knots | gust knots | rain 1hr in | rain 24hr in | rain mn in | humidity % | barometer mb |
| 20260507075738 | 55 | 321 | 0.9 | 5.2 | 0.00 | 0.17 | 0.08 | 94 | 1010.8 |
| 20260507075238 | 55 | 101 | 1.7 | 1.7 | 0.00 | 0.17 | 0.08 | 94 | 1010.6 |
| 20260507074738 | 55 | 338 | 1.7 | 4.3 | 0.00 | 0.17 | 0.08 | 94 | 1010.6 |
| 20260507074238 | 55 | 339 | 1.7 | 4.3 | 0.01 | 0.17 | 0.08 | 94 | 1010.6 |
| 20260507073738 | 56 | 332 | 1.7 | 5.2 | 0.01 | 0.17 | 0.08 | 95 | 1010.6 |
| 20260507073238 | 56 | 52 | 0.9 | 7.8 | 0.01 | 0.17 | 0.08 | 95 | 1010.3 |
| 20260507072737 | 56 | 292 | 0.9 | 2.6 | 0.01 | 0.17 | 0.08 | 95 | 1010.2 |
| 20260507072237 | 56 | 53 | 0.9 | 2.6 | 0.01 | 0.17 | 0.08 | 95 | 1010.0 |
| 20260507071737 | 56 | 319 | 2.6 | 5.2 | 0.01 | 0.17 | 0.08 | 95 | 1010.2 |
| 20260507071237 | 56 | 350 | 4.3 | 6.1 | 0.01 | 0.17 | 0.08 | 95 | 1010.4 |
| 20260507070737 | 56 | 330 | 2.6 | 7.0 | 0.01 | 0.17 | 0.08 | 96 | 1010.3 |
| 20260507070237 | 56 | 329 | 2.6 | 5.2 | 0.01 | 0.17 | 0.08 | 95 | 1010.1 |
| 20260507065736 | 56 | 321 | 2.6 | 7.8 | 0.01 | 0.17 | 0.08 | 95 | 1009.9 |
| 20260507065236 | 56 | 340 | 5.2 | 6.1 | 0.02 | 0.17 | 0.08 | 95 | 1009.8 |
| 20260507064736 | 56 | 329 | 0.9 | 5.2 | 0.02 | 0.17 | 0.08 | 95 | 1009.8 |
| 20260507064236 | 56 | 328 | 2.6 | 5.2 | 0.02 | 0.16 | 0.07 | 96 | 1009.7 |
| 20260507063736 | 56 | 331 | 1.7 | 5.2 | 0.03 | 0.16 | 0.07 | 96 | 1009.8 |
| 20260507063236 | 56 | 337 | 2.6 | 5.2 | 0.04 | 0.16 | 0.07 | 96 | 1010.0 |
| 20260507062736 | 56 | 348 | 0.9 | 1.7 | 0.05 | 0.16 | 0.07 | 95 | 1009.9 |
| 20260507062235 | 56 | 336 | 1.7 | 4.3 | 0.06 | 0.16 | 0.07 | 95 | 1010.0 |
| 20260507061735 | 56 | 345 | 2.6 | 4.3 | 0.06 | 0.16 | 0.07 | 95 | 1010.2 |
| 20260507061235 | 57 | 328 | 2.6 | 6.1 | 0.06 | 0.16 | 0.07 | 94 | 1010.2 |
| 20260507060735 | 57 | 332 | 0.9 | 2.6 | 0.06 | 0.16 | 0.07 | 94 | 1010.4 |
| 20260507060235 | 57 | 313 | 1.7 | 2.6 | 0.07 | 0.16 | 0.07 | 93 | 1010.3 |
| 20260507055735 | 57 | 315 | 6.1 | 7.0 | 0.07 | 0.16 | 0.07 | 93 | 1010.6 |
| 20260507055234 | 58 | 339 | 1.7 | 1.7 | 0.06 | 0.15 | 0.06 | 91 | 1010.0 |
| 20260507054734 | 58 | 350 | 5.2 | 8.7 | 0.06 | 0.15 | 0.06 | 90 | 1010.0 |
| 20260507054234 | 59 | 318 | 2.6 | 7.0 | 0.05 | 0.14 | 0.05 | 90 | 1010.0 |
| 20260507053734 | 60 | 323 | 2.6 | 8.7 | 0.04 | 0.13 | 0.04 | 90 | 1009.9 |
| 20260507053234 | 60 | 319 | 5.2 | 6.1 | 0.03 | 0.12 | 0.03 | 90 | 1010.6 |
| 20260507052734 | 60 | 0 | 2.6 | 6.1 | 0.02 | 0.11 | 0.02 | 89 | 1010.7 |
| 20260507052204 | 61 | 326 | 4.3 | 8.7 | 0.01 | 0.10 | 0.01 | 89 | 1010.9 |
| 20260507051703 | 61 | 348 | 4.3 | 6.1 | 0.01 | 0.10 | 0.01 | 89 | 1010.7 |
| 20260507051203 | 62 | 322 | 1.7 | 2.6 | 0.01 | 0.10 | 0.01 | 89 | 1010.5 |
| 20260507050703 | 62 | 330 | 4.3 | 6.1 | 0.01 | 0.10 | 0.01 | 88 | 1010.5 |
| 20260507050203 | 63 | 323 | 2.6 | 4.3 | 0.00 | 0.09 | 0.00 | 86 | 1010.4 |
| 20260507045703 | 63 | 299 | 1.7 | 4.3 | 0.00 | 0.09 | 0.00 | 85 | 1010.2 |
| 20260507045203 | 63 | 334 | 1.7 | 4.3 | 0.00 | 0.09 | 0.00 | 84 | 1010.1 |
| 20260507044703 | 63 | 328 | 4.3 | 8.7 | 0.00 | 0.09 | 0.00 | 83 | 1010.1 |
| 20260507044202 | 64 | 327 | 4.3 | 5.2 | 0.00 | 0.09 | 0.00 | 83 | 1009.9 |
| 20260507043702 | 64 | 330 | 1.7 | 5.2 | 0.00 | 0.09 | 0.00 | 82 | 1009.9 |
| 20260507043202 | 64 | 293 | 2.6 | 2.6 | 0.00 | 0.09 | 0.00 | 81 | 1009.8 |
| 20260507042702 | 64 | 338 | 2.6 | 7.0 | 0.00 | 0.09 | 0.00 | 81 | 1009.7 |
| 20260507042202 | 64 | 327 | 4.3 | 6.1 | 0.00 | 0.09 | 0.00 | 82 | 1009.5 |
| 20260507041702 | 64 | 322 | 1.7 | 4.3 | 0.00 | 0.09 | 0.00 | 84 | 1009.3 |
| 20260507041201 | 64 | 331 | 0.9 | 4.3 | 0.00 | 0.09 | 0.00 | 85 | 1009.1 |
| 20260507040701 | 65 | 335 | 5.2 | 10.4 | 0.00 | 0.09 | 0.00 | 86 | 1009.5 |
| 20260507040201 | 65 | 323 | 4.3 | 6.1 | 0.00 | 0.09 | 0.00 | 88 | 1009.6 |
| 20260507035701 | 65 | 333 | 1.7 | 7.0 | 0.00 | 0.09 | 0.09 | 88 | 1009.6 |
| 20260507035201 | 65 | 323 | 1.7 | 2.6 | 0.00 | 0.09 | 0.09 | 88 | 1009.7 |
| 20260507034701 | 65 | 332 | 1.7 | 4.3 | 0.00 | 0.09 | 0.09 | 88 | 1009.7 |
| 20260507034201 | 65 | 306 | 1.7 | 2.6 | 0.00 | 0.09 | 0.09 | 88 | 1009.7 |
| 20260507033700 | 65 | 313 | 1.7 | 7.0 | 0.00 | 0.09 | 0.09 | 89 | 1009.6 |
| 20260507033200 | 65 | 323 | 0.9 | 1.7 | 0.00 | 0.09 | 0.09 | 90 | 1009.5 |
| 20260507032700 | 65 | 314 | 2.6 | 5.2 | 0.00 | 0.09 | 0.09 | 90 | 1009.3 |
| 20260507032200 | 65 | 271 | 1.7 | 6.1 | 0.00 | 0.09 | 0.09 | 91 | 1009.3 |
| 20260507031700 | 66 | 290 | 2.6 | 2.6 | 0.00 | 0.09 | 0.09 | 90 | 1009.4 |
| 20260507031200 | 66 | 103 | 0.9 | 2.6 | 0.00 | 0.09 | 0.09 | 90 | 1009.3 |
| 20260507030659 | 66 | 103 | 0.9 | 1.7 | 0.00 | 0.09 | 0.09 | 90 | 1009.2 |
| 20260507030159 | 66 | 103 | 0.9 | 0.9 | 0.00 | 0.09 | 0.09 | 90 | 1009.3 |
| 20260507025659 | 66 | 103 | 0.9 | 2.6 | 0.00 | 0.09 | 0.09 | 91 | 1009.2 |
| 20260507025159 | 65 | 103 | 0.0 | 0.9 | 0.00 | 0.09 | 0.09 | 91 | 1009.0 |
| 20260507024659 | 65 | 103 | 0.0 | 0.0 | 0.00 | 0.09 | 0.09 | 91 | 1008.8 |
| 20260507024159 | 65 | 103 | 0.0 | 0.0 | 0.00 | 0.09 | 0.09 | 91 | 1008.8 |
| 20260507023659 | 65 | 103 | 0.0 | 0.0 | 0.00 | 0.09 | 0.09 | 91 | 1008.9 |
| 20260507023158 | 65 | 103 | 0.0 | 0.0 | 0.00 | 0.09 | 0.09 | 91 | 1008.9 |
| 20260507022658 | 65 | 103 | 0.0 | 0.0 | 0.00 | 0.09 | 0.09 | 90 | 1008.9 |
| 20260507022158 | 66 | 103 | 0.0 | 0.0 | 0.00 | 0.09 | 0.09 | 90 | 1008.8 |
| 20260507021658 | 66 | 103 | 0.0 | 0.0 | 0.00 | 0.09 | 0.09 | 89 | 1008.8 |
| 20260507021158 | 66 | 103 | 0.0 | 0.0 | 0.00 | 0.09 | 0.09 | 89 | 1008.9 |
| 20260507020658 | 66 | 103 | 0.0 | 0.0 | 0.00 | 0.09 | 0.09 | 89 | 1008.8 |
| 20260507020158 | 66 | 103 | 0.9 | 0.9 | 0.00 | 0.09 | 0.09 | 89 | 1008.9 |
| 20260507015657 | 66 | 103 | 0.0 | 0.9 | 0.00 | 0.09 | 0.09 | 89 | 1009.1 |
| 20260507015157 | 66 | 103 | 0.0 | 0.9 | 0.00 | 0.09 | 0.09 | 89 | 1009.3 |
| 20260507014657 | 66 | 103 | 0.0 | 0.0 | 0.00 | 0.09 | 0.09 | 89 | 1009.5 |
| 20260507014157 | 66 | 103 | 0.0 | 0.9 | 0.00 | 0.09 | 0.09 | 89 | 1009.5 |
| 20260507013657 | 66 | 103 | 0.0 | 0.0 | 0.00 | 0.09 | 0.09 | 89 | 1009.6 |
| 20260507013157 | 66 | 103 | 0.0 | 0.0 | 0.00 | 0.09 | 0.09 | 89 | 1009.6 |
| 20260507012656 | 66 | 103 | 0.0 | 0.9 | 0.00 | 0.09 | 0.09 | 89 | 1009.7 |
| 20260507012156 | 66 | 103 | 0.0 | 0.0 | 0.00 | 0.09 | 0.09 | 89 | 1009.6 |
| 20260507011656 | 66 | 103 | 0.0 | 0.0 | 0.00 | 0.09 | 0.09 | 89 | 1009.5 |
| 20260507011156 | 66 | 103 | 0.0 | 0.9 | 0.00 | 0.09 | 0.09 | 89 | 1009.5 |
| 20260507010656 | 66 | 103 | 0.0 | 0.0 | 0.00 | 0.09 | 0.09 | 89 | 1009.2 |
| 20260507010156 | 66 | 103 | 0.0 | 0.0 | 0.00 | 0.09 | 0.09 | 89 | 1009.2 |
| 20260507005656 | 66 | 103 | 0.0 | 0.0 | 0.00 | 0.09 | 0.09 | 88 | 1009.3 |
| 20260507005155 | 66 | 103 | 0.0 | 0.9 | 0.00 | 0.09 | 0.09 | 88 | 1009.1 |
| 20260507004655 | 66 | 103 | 0.0 | 0.0 | 0.00 | 0.09 | 0.09 | 88 | 1009.1 |
| 20260507004155 | 66 | 103 | 0.0 | 0.0 | 0.00 | 0.09 | 0.09 | 88 | 1009.1 |
| 20260507003655 | 66 | 103 | 0.9 | 0.9 | 0.00 | 0.09 | 0.09 | 88 | 1009.1 |
| 20260507003155 | 66 | 245 | 0.0 | 0.9 | 0.00 | 0.09 | 0.09 | 88 | 1009.2 |
| 20260507002655 | 67 | 245 | 0.0 | 0.0 | 0.00 | 0.09 | 0.09 | 88 | 1009.2 |
| 20260507002155 | 67 | 245 | 0.0 | 0.0 | 0.00 | 0.09 | 0.09 | 87 | 1009.2 |
| 20260507001654 | 67 | 245 | 0.0 | 0.0 | 0.00 | 0.09 | 0.09 | 87 | 1009.1 |
| 20260507001154 | 67 | 252 | 0.0 | 1.7 | 0.00 | 0.09 | 0.09 | 87 | 1009.3 |
| 20260507000654 | 67 | 253 | 0.0 | 2.6 | 0.00 | 0.09 | 0.09 | 88 | 1009.1 |
| 20260507000154 | 67 | 218 | 0.0 | 0.9 | 0.00 | 0.09 | 0.09 | 88 | 1009.3 |
| 20260506235654 | 67 | 96 | 0.9 | 1.7 | 0.00 | 0.09 | 0.09 | 88 | 1009.0 |
| 20260506235154 | 67 | 96 | 0.0 | 0.0 | 0.00 | 0.09 | 0.09 | 87 | 1008.8 |
| 20260506234654 | 67 | 96 | 0.0 | 0.9 | 0.00 | 0.09 | 0.09 | 87 | 1008.8 |
| 20260506234153 | 67 | 96 | 0.0 | 0.0 | 0.00 | 0.09 | 0.09 | 87 | 1008.9 |
| 20260506233653 | 67 | 96 | 0.0 | 0.9 | 0.00 | 0.09 | 0.09 | 87 | 1008.7 |
| 20260506233153 | 67 | 96 | 0.0 | 0.9 | 0.00 | 0.09 | 0.09 | 87 | 1008.6 |
| 20260506232653 | 67 | 96 | 0.9 | 0.9 | 0.00 | 0.09 | 0.09 | 86 | 1008.7 |
| 20260506232153 | 68 | 96 | 0.0 | 0.9 | 0.00 | 0.09 | 0.09 | 86 | 1008.5 |
| 20260506231653 | 68 | 95 | 1.7 | 2.6 | 0.00 | 0.09 | 0.09 | 86 | 1008.4 |
| 20260506231152 | 68 | 355 | 0.9 | 1.7 | 0.00 | 0.09 | 0.09 | 86 | 1008.7 |
| 20260506230652 | 68 | 251 | 0.0 | 0.9 | 0.00 | 0.09 | 0.09 | 85 | 1008.6 |
| 20260506230152 | 68 | 229 | 0.0 | 1.7 | 0.00 | 0.09 | 0.09 | 85 | 1008.6 |
| 20260506225652 | 68 | 228 | 0.0 | 0.9 | 0.00 | 0.09 | 0.09 | 85 | 1008.4 |
| 20260506225152 | 69 | 269 | 0.0 | 0.9 | 0.00 | 0.09 | 0.09 | 84 | 1008.5 |
| 20260506224622 | 69 | 245 | 1.7 | 2.6 | 0.00 | 0.09 | 0.09 | 84 | 1008.7 |
| 20260506224121 | 69 | 266 | 0.0 | 0.9 | 0.00 | 0.09 | 0.09 | 84 | 1008.8 |
| 20260506223621 | 69 | 264 | 0.9 | 1.7 | 0.00 | 0.09 | 0.09 | 84 | 1008.7 |
| 20260506223121 | 69 | 247 | 0.9 | 1.7 | 0.00 | 0.09 | 0.09 | 84 | 1008.6 |
| 20260506222621 | 69 | 251 | 4.3 | 5.2 | 0.00 | 0.09 | 0.09 | 84 | 1008.7 |
| 20260506222121 | 69 | 249 | 1.7 | 4.3 | 0.00 | 0.09 | 0.09 | 84 | 1008.7 |
| 20260506221621 | 69 | 243 | 2.6 | 5.2 | 0.00 | 0.09 | 0.09 | 83 | 1008.7 |
| 20260506221121 | 69 | 257 | 4.3 | 4.3 | 0.00 | 0.09 | 0.09 | 83 | 1008.7 |
| 20260506220620 | 70 | 252 | 0.9 | 2.6 | 0.00 | 0.09 | 0.09 | 83 | 1008.7 |
| 20260506220120 | 70 | 246 | 1.7 | 4.3 | 0.00 | 0.09 | 0.09 | 83 | 1008.6 |
| 20260506215620 | 70 | 213 | 0.0 | 0.9 | 0.00 | 0.09 | 0.09 | 83 | 1008.6 |
| 20260506215120 | 69 | 222 | 1.7 | 2.6 | 0.00 | 0.09 | 0.09 | 83 | 1008.6 |
| 20260506214620 | 70 | 264 | 1.7 | 2.6 | 0.00 | 0.09 | 0.09 | 83 | 1008.6 |
| 20260506214120 | 70 | 198 | 1.7 | 2.6 | 0.00 | 0.09 | 0.09 | 83 | 1008.5 |
| 20260506213620 | 70 | 265 | 1.7 | 2.6 | 0.00 | 0.09 | 0.09 | 84 | 1008.5 |
| 20260506213119 | 69 | 225 | 0.0 | 2.6 | 0.00 | 0.09 | 0.09 | 84 | 1008.5 |
| 20260506212619 | 69 | 264 | 4.3 | 4.3 | 0.00 | 0.09 | 0.09 | 83 | 1008.6 |
| 20260506212119 | 69 | 250 | 4.3 | 7.0 | 0.00 | 0.09 | 0.09 | 83 | 1008.5 |
| 20260506211619 | 69 | 214 | 0.9 | 0.9 | 0.00 | 0.09 | 0.09 | 84 | 1008.2 |
| 20260506211119 | 69 | 253 | 1.7 | 4.3 | 0.00 | 0.09 | 0.09 | 83 | 1008.3 |
| 20260506210619 | 69 | 254 | 2.6 | 6.1 | 0.00 | 0.09 | 0.09 | 83 | 1008.4 |
| 20260506210118 | 69 | 262 | 4.3 | 5.2 | 0.00 | 0.09 | 0.09 | 82 | 1008.3 |
| 20260506205618 | 70 | 234 | 4.3 | 6.1 | 0.00 | 0.09 | 0.09 | 82 | 1008.2 |
| 20260506205048 | 71 | 250 | 5.2 | 8.7 | 0.00 | 0.09 | 0.09 | 81 | 1008.2 |
| 20260506204548 | 71 | 234 | 2.6 | 4.3 | 0.00 | 0.09 | 0.09 | 82 | 1008.3 |
| 20260506204048 | 70 | 249 | 5.2 | 7.8 | 0.00 | 0.09 | 0.09 | 82 | 1008.2 |
| 20260506203548 | 70 | 258 | 0.9 | 5.2 | 0.00 | 0.09 | 0.09 | 83 | 1008.2 |
| 20260506203048 | 70 | 233 | 2.6 | 7.0 | 0.00 | 0.09 | 0.09 | 83 | 1008.3 |
| 20260506202547 | 70 | 162 | 2.6 | 7.8 | 0.00 | 0.09 | 0.09 | 82 | 1008.2 |
| 20260506202047 | 70 | 52 | 1.7 | 2.6 | 0.00 | 0.09 | 0.09 | 82 | 1008.2 |
| 20260506201547 | 70 | 231 | 4.3 | 7.8 | 0.00 | 0.09 | 0.09 | 82 | 1008.3 |
| 20260506201047 | 70 | 217 | 4.3 | 7.0 | 0.00 | 0.09 | 0.09 | 83 | 1008.2 |
| 20260506200547 | 70 | 245 | 5.2 | 10.4 | 0.00 | 0.09 | 0.09 | 81 | 1008.1 |
| 20260506200047 | 70 | 228 | 1.7 | 7.0 | 0.00 | 0.09 | 0.09 | 82 | 1008.1 |
| 20260506195547 | 70 | 337 | 0.9 | 1.7 | 0.00 | 0.09 | 0.09 | 83 | 1008.3 |
| 20260506195046 | 70 | 318 | 0.9 | 2.6 | 0.00 | 0.09 | 0.09 | 82 | 1008.2 |
| 20260506194547 | 70 | 214 | 1.7 | 6.1 | 0.00 | 0.09 | 0.09 | 83 | 1008.3 |
| 20260506194046 | 70 | 176 | 0.9 | 2.6 | 0.00 | 0.09 | 0.09 | 82 | 1008.4 |
| 20260506193546 | 70 | 236 | 1.7 | 7.0 | 0.00 | 0.09 | 0.09 | 82 | 1008.3 |
| 20260506193046 | 69 | 213 | 2.6 | 2.6 | 0.00 | 0.09 | 0.09 | 82 | 1008.5 |
| 20260506192546 | 69 | 249 | 4.3 | 5.2 | 0.00 | 0.09 | 0.09 | 82 | 1008.5 |
| 20260506192045 | 69 | 260 | 1.7 | 8.7 | 0.00 | 0.09 | 0.09 | 84 | 1008.4 |
| 20260506191545 | 68 | 333 | 0.9 | 2.6 | 0.00 | 0.09 | 0.09 | 84 | 1008.4 |
| 20260506191045 | 68 | 258 | 5.2 | 10.4 | 0.00 | 0.09 | 0.09 | 83 | 1008.5 |
| 20260506190545 | 68 | 250 | 2.6 | 8.7 | 0.00 | 0.09 | 0.09 | 84 | 1008.6 |
| 20260506190045 | 68 | 210 | 2.6 | 4.3 | 0.00 | 0.09 | 0.09 | 84 | 1008.7 |
| 20260506185545 | 68 | 258 | 2.6 | 5.2 | 0.00 | 0.09 | 0.09 | 84 | 1008.7 |
| 20260506185045 | 68 | 245 | 1.7 | 7.0 | 0.00 | 0.09 | 0.09 | 85 | 1008.7 |
| 20260506184544 | 68 | 241 | 4.3 | 7.0 | 0.00 | 0.09 | 0.09 | 85 | 1008.7 |
| 20260506184044 | 68 | 228 | 2.6 | 7.8 | 0.00 | 0.09 | 0.09 | 84 | 1008.9 |
| 20260506183544 | 68 | 215 | 2.6 | 6.1 | 0.00 | 0.09 | 0.09 | 84 | 1009.0 |
| 20260506183044 | 68 | 242 | 5.2 | 11.3 | 0.00 | 0.09 | 0.09 | 84 | 1009.0 |
| 20260506182544 | 68 | 229 | 1.7 | 7.0 | 0.00 | 0.09 | 0.09 | 85 | 1008.9 |
| 20260506182044 | 67 | 250 | 7.0 | 13.0 | 0.00 | 0.09 | 0.09 | 84 | 1009.2 |
| 20260506181543 | 67 | 235 | 6.1 | 10.4 | 0.00 | 0.09 | 0.09 | 85 | 1009.2 |
| 20260506181043 | 67 | 259 | 4.3 | 8.7 | 0.00 | 0.09 | 0.09 | 86 | 1009.1 |
| 20260506180543 | 67 | 220 | 2.6 | 6.1 | 0.00 | 0.09 | 0.09 | 86 | 1009.1 |
| 20260506180043 | 67 | 213 | 2.6 | 5.2 | 0.00 | 0.09 | 0.09 | 86 | 1009.2 |
| 20260506175543 | 67 | 240 | 4.3 | 8.7 | 0.00 | 0.09 | 0.09 | 86 | 1009.2 |
| 20260506175043 | 66 | 201 | 5.2 | 11.3 | 0.00 | 0.09 | 0.09 | 86 | 1009.2 |
| 20260506174543 | 66 | 251 | 2.6 | 8.7 | 0.00 | 0.09 | 0.09 | 87 | 1009.2 |
| 20260506174042 | 66 | 211 | 6.1 | 8.7 | 0.00 | 0.09 | 0.09 | 87 | 1009.3 |
| 20260506173542 | 66 | 215 | 4.3 | 7.0 | 0.00 | 0.09 | 0.09 | 88 | 1009.4 |
| 20260506173042 | 66 | 174 | 6.1 | 10.4 | 0.00 | 0.09 | 0.09 | 88 | 1009.2 |
| 20260506172542 | 66 | 201 | 4.3 | 6.1 | 0.00 | 0.09 | 0.09 | 89 | 1009.3 |
| 20260506172042 | 65 | 246 | 0.9 | 2.6 | 0.00 | 0.09 | 0.09 | 89 | 1009.4 |
| 20260506171542 | 65 | 227 | 4.3 | 8.7 | 0.00 | 0.09 | 0.09 | 88 | 1009.5 |
| 20260506171042 | 65 | 212 | 4.3 | 8.7 | 0.00 | 0.09 | 0.09 | 89 | 1009.4 |
| 20260506170541 | 65 | 209 | 6.1 | 13.9 | 0.00 | 0.09 | 0.09 | 89 | 1009.5 |
| 20260506170041 | 65 | 221 | 2.6 | 7.0 | 0.00 | 0.09 | 0.09 | 89 | 1009.6 |
| 20260506165541 | 65 | 186 | 1.7 | 4.3 | 0.00 | 0.09 | 0.09 | 89 | 1009.6 |
| 20260506165041 | 65 | 229 | 2.6 | 4.3 | 0.00 | 0.09 | 0.09 | 89 | 1009.7 |
| 20260506164541 | 65 | 270 | 4.3 | 11.3 | 0.00 | 0.09 | 0.09 | 89 | 1009.6 |
| 20260506164041 | 65 | 268 | 5.2 | 10.4 | 0.01 | 0.09 | 0.09 | 90 | 1009.5 |
| 20260506163540 | 64 | 235 | 2.6 | 8.7 | 0.01 | 0.09 | 0.09 | 91 | 1009.4 |
| 20260506163040 | 63 | 319 | 1.7 | 4.3 | 0.01 | 0.09 | 0.09 | 92 | 1009.3 |
| 20260506162540 | 63 | 170 | 1.7 | 7.0 | 0.01 | 0.09 | 0.09 | 93 | 1009.6 |
| 20260506162040 | 63 | 251 | 0.9 | 2.6 | 0.01 | 0.09 | 0.09 | 93 | 1009.8 |
| 20260506161540 | 63 | 204 | 1.7 | 4.3 | 0.03 | 0.09 | 0.09 | 93 | 1009.8 |
| 20260506161040 | 63 | 86 | 1.7 | 2.6 | 0.04 | 0.09 | 0.09 | 93 | 1009.9 |
| 20260506160540 | 63 | 134 | 0.9 | 5.2 | 0.05 | 0.09 | 0.09 | 93 | 1010.0 |
| 20260506160039 | 63 | 107 | 2.6 | 6.1 | 0.06 | 0.09 | 0.09 | 93 | 1009.9 |
| 20260506155539 | 63 | 144 | 0.9 | 2.6 | 0.06 | 0.09 | 0.09 | 94 | 1009.8 |
| 20260506155039 | 62 | 108 | 2.6 | 7.0 | 0.07 | 0.09 | 0.09 | 94 | 1009.7 |
| 20260506154539 | 62 | 101 | 2.6 | 6.1 | 0.07 | 0.09 | 0.09 | 94 | 1009.9 |
| 20260506154039 | 62 | 231 | 0.9 | 2.6 | 0.07 | 0.08 | 0.08 | 94 | 1010.2 |
| 20260506153539 | 62 | 110 | 4.3 | 5.2 | 0.07 | 0.08 | 0.08 | 93 | 1010.4 |
| 20260506153039 | 62 | 265 | 0.0 | 1.7 | 0.07 | 0.08 | 0.08 | 93 | 1010.6 |
| 20260506152538 | 62 | 96 | 0.9 | 0.9 | 0.07 | 0.08 | 0.08 | 92 | 1010.6 |
| 20260506152038 | 62 | 183 | 1.7 | 4.3 | 0.08 | 0.08 | 0.08 | 92 | 1010.7 |
| 20260506151538 | 63 | 200 | 1.7 | 2.6 | 0.06 | 0.06 | 0.06 | 91 | 1010.8 |
| 20260506151038 | 63 | 223 | 2.6 | 5.2 | 0.05 | 0.05 | 0.05 | 91 | 1010.7 |
| 20260506150538 | 63 | 236 | 1.7 | 2.6 | 0.04 | 0.04 | 0.04 | 90 | 1010.6 |
| 20260506150038 | 63 | 176 | 1.7 | 5.2 | 0.03 | 0.03 | 0.03 | 89 | 1010.7 |
| 20260506145537 | 63 | 27 | 0.0 | 2.6 | 0.03 | 0.03 | 0.03 | 88 | 1010.6 |
| 20260506145037 | 63 | 109 | 1.7 | 1.7 | 0.02 | 0.02 | 0.02 | 88 | 1010.7 |
| 20260506144537 | 64 | 102 | 1.7 | 2.6 | 0.02 | 0.02 | 0.02 | 87 | 1010.7 |
| 20260506144037 | 64 | 273 | 1.7 | 2.6 | 0.01 | 0.01 | 0.01 | 87 | 1010.7 |
| 20260506143537 | 64 | 317 | 0.9 | 2.6 | 0.01 | 0.01 | 0.01 | 87 | 1010.7 |
| 20260506143037 | 64 | 95 | 1.7 | 2.6 | 0.01 | 0.01 | 0.01 | 86 | 1010.8 |
| 20260506142537 | 64 | 20 | 0.9 | 0.9 | 0.01 | 0.01 | 0.01 | 85 | 1010.7 |
| 20260506142036 | 64 | 136 | 0.9 | 2.6 | 0.00 | 0.00 | 0.00 | 84 | 1010.8 |
| 20260506141536 | 65 | 58 | 2.6 | 2.6 | 0.00 | 0.00 | 0.00 | 83 | 1010.8 |
| 20260506141036 | 65 | 271 | 1.7 | 6.1 | 0.00 | 0.00 | 0.00 | 82 | 1010.9 |
| 20260506140536 | 65 | 228 | 1.7 | 7.0 | 0.00 | 0.00 | 0.00 | 82 | 1010.9 |
| 20260506140036 | 65 | 334 | 2.6 | 7.0 | 0.00 | 0.00 | 0.00 | 81 | 1011.0 |
| 20260506135536 | 65 | 255 | 2.6 | 6.1 | 0.00 | 0.00 | 0.00 | 81 | 1011.0 |
| 20260506135036 | 65 | 4 | 1.7 | 4.3 | 0.00 | 0.00 | 0.00 | 81 | 1011.0 |
| 20260506134535 | 65 | 222 | 0.9 | 5.2 | 0.00 | 0.00 | 0.00 | 81 | 1010.9 |
| 20260506134035 | 65 | 206 | 1.7 | 10.4 | 0.00 | 0.00 | 0.00 | 81 | 1010.8 |
| 20260506133535 | 65 | 249 | 2.6 | 6.1 | 0.00 | 0.00 | 0.00 | 80 | 1010.8 |
| 20260506133035 | 66 | 79 | 1.7 | 2.6 | 0.00 | 0.00 | 0.00 | 80 | 1010.7 |
| 20260506132535 | 66 | 36 | 1.7 | 5.2 | 0.00 | 0.00 | 0.00 | 79 | 1010.7 |
| 20260506132035 | 66 | 216 | 2.6 | 7.0 | 0.00 | 0.00 | 0.00 | 79 | 1010.6 |
| 20260506131534 | 66 | 155 | 2.6 | 2.6 | 0.00 | 0.00 | 0.00 | 79 | 1010.6 |
| 20260506131034 | 66 | 87 | 1.7 | 2.6 | 0.00 | 0.00 | 0.00 | 79 | 1010.5 |
| 20260506130534 | 66 | 217 | 2.6 | 7.0 | 0.00 | 0.00 | 0.00 | 79 | 1010.4 |
| 20260506130034 | 66 | 149 | 2.6 | 7.0 | 0.00 | 0.00 | 0.00 | 79 | 1010.5 |
| 20260506125534 | 66 | 205 | 2.6 | 7.0 | 0.00 | 0.00 | 0.00 | 79 | 1010.5 |
| 20260506125034 | 66 | 15 | 1.7 | 4.3 | 0.00 | 0.00 | 0.00 | 79 | 1010.5 |
| 20260506124534 | 66 | 111 | 2.6 | 6.1 | 0.00 | 0.00 | 0.00 | 80 | 1010.6 |
| 20260506124033 | 66 | 301 | 1.7 | 2.6 | 0.00 | 0.00 | 0.00 | 80 | 1010.7 |
| 20260506123533 | 66 | 237 | 2.6 | 7.8 | 0.00 | 0.00 | 0.00 | 79 | 1010.7 |
| 20260506123033 | 65 | 160 | 1.7 | 5.2 | 0.00 | 0.00 | 0.00 | 79 | 1010.8 |
| 20260506122533 | 65 | 128 | 0.9 | 2.6 | 0.00 | 0.00 | 0.00 | 80 | 1010.8 |
| 20260506122033 | 65 | 109 | 4.3 | 7.0 | 0.00 | 0.00 | 0.00 | 79 | 1010.7 |
| 20260506121533 | 66 | 279 | 1.7 | 4.3 | 0.00 | 0.00 | 0.00 | 79 | 1010.7 |
| 20260506121032 | 66 | 238 | 1.7 | 6.1 | 0.00 | 0.00 | 0.00 | 79 | 1010.7 |
| 20260506120532 | 66 | 190 | 4.3 | 12.2 | 0.00 | 0.00 | 0.00 | 79 | 1010.6 |
| 20260506120032 | 66 | 80 | 1.7 | 4.3 | 0.00 | 0.00 | 0.00 | 80 | 1010.6 |
| 20260506115532 | 66 | 145 | 1.7 | 4.3 | 0.00 | 0.00 | 0.00 | 80 | 1010.5 |
| 20260506115032 | 66 | 152 | 2.6 | 7.8 | 0.00 | 0.00 | 0.00 | 81 | 1010.4 |
| 20260506114532 | 65 | 172 | 1.7 | 5.2 | 0.00 | 0.00 | 0.00 | 81 | 1010.4 |
| 20260506114032 | 65 | 90 | 2.6 | 6.1 | 0.00 | 0.00 | 0.00 | 81 | 1010.5 |
| 20260506113531 | 65 | 203 | 2.6 | 5.2 | 0.00 | 0.00 | 0.00 | 81 | 1010.5 |
| 20260506113031 | 65 | 16 | 0.9 | 2.6 | 0.00 | 0.00 | 0.00 | 81 | 1010.4 |
| 20260506112531 | 65 | 56 | 1.7 | 4.3 | 0.00 | 0.00 | 0.00 | 81 | 1010.3 |
| 20260506112031 | 65 | 161 | 1.7 | 2.6 | 0.00 | 0.00 | 0.00 | 81 | 1010.3 |
| 20260506111501 | 65 | 7 | 0.9 | 1.7 | 0.00 | 0.00 | 0.00 | 82 | 1010.3 |
| 20260506111001 | 65 | 65 | 0.9 | 2.6 | 0.00 | 0.00 | 0.00 | 82 | 1010.3 |
| 20260506110500 | 65 | 161 | 0.9 | 2.6 | 0.00 | 0.00 | 0.00 | 82 | 1010.2 |
| 20260506110000 | 65 | 91 | 2.6 | 2.6 | 0.00 | 0.00 | 0.00 | 82 | 1010.2 |
| 20260506105500 | 65 | 119 | 1.7 | 6.1 | 0.00 | 0.00 | 0.00 | 83 | 1010.2 |
| 20260506105000 | 65 | 83 | 1.7 | 2.6 | 0.00 | 0.00 | 0.00 | 83 | 1010.2 |
| 20260506104500 | 65 | 285 | 1.7 | 7.8 | 0.00 | 0.00 | 0.00 | 83 | 1010.1 |
| 20260506104000 | 64 | 95 | 1.7 | 5.2 | 0.00 | 0.00 | 0.00 | 83 | 1010.1 |
| 20260506103500 | 64 | 268 | 2.6 | 1.7 | 0.00 | 0.00 | 0.00 | 83 | 1010.2 |
| 20260506102959 | 64 | 21 | 1.7 | 4.3 | 0.00 | 0.00 | 0.00 | 83 | 1010.2 |
| 20260506102459 | 65 | 146 | 1.7 | 2.6 | 0.00 | 0.00 | 0.00 | 83 | 1010.1 |
| 20260506101959 | 65 | 170 | 1.7 | 4.3 | 0.00 | 0.00 | 0.00 | 83 | 1010.1 |
| 20260506101459 | 65 | 95 | 1.7 | 6.1 | 0.00 | 0.00 | 0.00 | 83 | 1010.1 |
| 20260506100959 | 65 | 157 | 1.7 | 7.8 | 0.00 | 0.00 | 0.00 | 83 | 1010.2 |
| 20260506100459 | 65 | 2 | 1.7 | 2.6 | 0.00 | 0.00 | 0.00 | 83 | 1010.2 |
| 20260506095959 | 65 | 90 | 1.7 | 5.2 | 0.00 | 0.00 | 0.00 | 83 | 1010.2 |
| 20260506095458 | 65 | 113 | 2.6 | 5.2 | 0.00 | 0.00 | 0.00 | 83 | 1010.2 |
| 20260506094958 | 65 | 96 | 1.7 | 7.0 | 0.00 | 0.00 | 0.00 | 83 | 1010.2 |
| 20260506094458 | 65 | 110 | 2.6 | 5.2 | 0.00 | 0.00 | 0.00 | 83 | 1010.2 |
| 20260506093958 | 65 | 107 | 1.7 | 5.2 | 0.00 | 0.00 | 0.00 | 83 | 1010.2 |
| 20260506093458 | 65 | 269 | 1.7 | 2.6 | 0.00 | 0.00 | 0.00 | 83 | 1010.2 |
| 20260506092958 | 65 | 20 | 0.9 | 2.6 | 0.00 | 0.00 | 0.00 | 83 | 1010.2 |
| 20260506092457 | 65 | 116 | 2.6 | 4.3 | 0.00 | 0.00 | 0.00 | 83 | 1010.1 |
| 20260506091957 | 65 | 112 | 2.6 | 4.3 | 0.00 | 0.00 | 0.00 | 83 | 1010.2 |
| 20260506091457 | 65 | 36 | 1.7 | 4.3 | 0.00 | 0.00 | 0.00 | 83 | 1010.3 |
| 20260506090957 | 65 | 91 | 2.6 | 5.2 | 0.00 | 0.00 | 0.00 | 83 | 1010.3 |
| 20260506090457 | 65 | 77 | 1.7 | 4.3 | 0.00 | 0.00 | 0.00 | 83 | 1010.2 |
| 20260506085957 | 65 | 83 | 2.6 | 7.0 | 0.00 | 0.00 | 0.00 | 83 | 1010.3 |
| 20260506085457 | 65 | 79 | 1.7 | 4.3 | 0.00 | 0.00 | 0.00 | 83 | 1010.4 |
| 20260506084956 | 65 | 120 | 2.6 | 5.2 | 0.00 | 0.00 | 0.00 | 83 | 1010.4 |
| 20260506084456 | 65 | 100 | 1.7 | 7.0 | 0.00 | 0.00 | 0.00 | 83 | 1010.4 |
| 20260506083956 | 65 | 330 | 1.7 | 5.2 | 0.00 | 0.00 | 0.00 | 82 | 1010.3 |
| 20260506083456 | 65 | 105 | 1.7 | 2.6 | 0.00 | 0.00 | 0.00 | 82 | 1010.3 |
| 20260506082956 | 65 | 259 | 1.7 | 7.8 | 0.00 | 0.00 | 0.00 | 82 | 1010.2 |
| 20260506082456 | 65 | 108 | 0.9 | 2.6 | 0.00 | 0.00 | 0.00 | 82 | 1010.1 |
| 20260506081956 | 65 | 97 | 2.6 | 2.6 | 0.00 | 0.00 | 0.00 | 82 | 1010.1 |
| 20260506081455 | 65 | 132 | 2.6 | 7.8 | 0.00 | 0.00 | 0.00 | 82 | 1010.2 |
| 20260506080955 | 65 | 82 | 1.7 | 7.0 | 0.00 | 0.00 | 0.00 | 82 | 1010.3 |
| 20260506080455 | 65 | 89 | 1.7 | 2.6 | 0.00 | 0.00 | 0.00 | 82 | 1010.3 |